Location: Unspecified
(0.0000°N, 0.0000°E)
Time: 11:44:02
(UTC-04:00)

Hubble Space Telescope - Pass Details

Date: 03 October 2021
Orbit: 535 x 539 km, 28.5° (Epoch: 24 October)

Event Time Altitude Azimuth Distance (km) Brightness Sun altitude
Exits shadow 00:32:11 46° 307° (NW) 726 1.0 -19.2°
Maximum altitude 00:32:39 48° 330° (NNW) 699 1.1 -19.1°
Drops below altitude 10° 00:36:38 10° 45° (NE) 1,776 4.0 -18.1°
Sets 00:38:56 0° 51° (NE) 2,664 5.1 -17.5°
